[[{"header":{"parameterUnit":"m.s-1","parameterCategory":2,"la1":30.2991,"la2":30.254,"lo1":-89.0895,"lo2":-89.0444,"dy":0.0017,"dx":0.0017,"nx":28,"ny":28,"refTime":"2024-07-05T09:00:00:Z","depth":"0","parameterNumber":2,"parameterNumberName":"U-component_of_CURRENTS"},"data":[0,0,0,0,0,0,0,0,0,0,0,0,0,0,0,0,0,0,0,0,0,0,0,0,0,0,0,0,0,0,0,0,0,0,0,0,0,0,0,0,0,0,0,0,0,0,0,0,0,0,0,0,0,0,0,0,0,0,-0.1804,-0.1805,0,-0.1819,-0.1819,-0.1819,-0.1745,-0.1744,-0.1742,-0.174,-0.1617,-0.1615,-0.1613,0,0,0,0,0,0,0,0,0,0,0,0,0,-0.1752,-0.1752,-0.1804,-0.1805,-0.1805,-0.182,-0.1819,-0.1819,-0.1746,-0.1743,-0.1741,-0.1739,-0.1617,-0.1615,-0.1613,0,0,0,0,0,0,0,0,0,0,0,0,0,-0.1767,-0.1753,-0.1804,-0.1774,-0.1772,-0.182,-0.1819,-0.1819,-0.1746,-0.1743,-0.1741,-0.1738,-0.1618,-0.1616,-0.1613,-0.1649,0,0,-0.1605,-0.1604,0,0,0,0,0,0,0,0,-0.1766,-0.1768,-0.1778,-0.1776,-0.1774,-0.1782,-0.1756,-0.1757,-0.1747,-0.1751,-0.174,-0.1737,-0.1664,-0.1658,-0.1661,-0.1643,-0.1637,-0.1605,-0.1603,-0.1602,-0.1602,0,0,0,0,0,0,0,-0.1765,-0.1768,-0.1805,-0.1779,-0.1776,-0.1774,-0.1772,-0.1756,-0.1715,-0.175,-0.1746,-0.1756,-0.1661,-0.1664,-0.1658,-0.1636,-0.1605,-0.1603,-0.1601,-0.16,-0.1587,-0.1588,0,0,0,0,0,0,-0.1774,-0.1767,-0.1805,-0.1806,-0.1769,-0.1777,-0.1775,-0.1778,-0.1718,-0.1709,-0.1758,-0.1753,-0.167,-0.1661,-0.1653,-0.1646,-0.1602,-0.16,-0.1599,-0.1586,-0.1588,-0.1589,0,0,0,0,0,0,-0.1773,-0.1777,-0.1804,-0.1791,-0.1795,-0.1781,-0.1785,-0.178,-0.1772,-0.1727,-0.1714,-0.1755,-0.1667,-0.1656,-0.1633,-0.1642,-0.1599,-0.1597,-0.1585,-0.1587,-0.1588,-0.1661,0,0,0,0,0,0,-0.1771,-0.1776,-0.178,-0.1791,-0.1796,-0.1828,-0.1788,-0.1782,-0.1786,-0.1778,-0.172,-0.1707,-0.1665,-0.1637,-0.163,-0.1638,-0.1595,-0.1583,-0.1585,-0.1588,-0.1657,-0.1665,-0.1672,0,0,0,0,0,-0.1769,-0.1788,-0.178,-0.1784,-0.1801,-0.183,-0.1831,-0.181,-0.1788,-0.1791,-0.1752,-0.1708,-0.1646,-0.1637,-0.1628,-0.1635,-0.1582,-0.1585,-0.1587,-0.1654,-0.1664,-0.1672,0,0,0,0,0,0,-0.1751,-0.1784,-0.1774,-0.1796,-0.1809,-0.1818,-0.1828,-0.1818,-0.1796,-0.178,-0.1727,-0.1712,-0.1698,-0.1664,-0.1655,-0.1639,-0.1606,-0.1607,-0.166,-0.1668,-0.1676,-0.1668,-0.1592,0,0,0,0,0,-0.1757,-0.1777,-0.1803,-0.1812,-0.1829,-0.183,-0.1839,-0.1828,-0.1816,-0.1804,-0.1763,-0.1725,-0.1709,-0.1684,-0.1663,-0.1656,-0.1635,-0.1655,-0.1663,-0.1669,-0.1659,-0.165,-0.1656,-0.1598,-0.1597,-0.1597,0,0,-0.1749,-0.1769,-0.1778,-0.181,-0.1819,-0.1845,-0.1827,-0.1846,-0.1845,-0.1795,-0.1771,-0.1754,-0.1717,-0.1708,-0.1697,-0.1672,-0.168,-0.1672,-0.1678,-0.1664,-0.1654,-0.1659,-0.1664,-0.1599,-0.1599,-0.1599,0,0,-0.1761,-0.1769,-0.1801,-0.1821,-0.185,-0.1854,-0.1863,-0.1875,-0.1858,-0.1853,-0.182,-0.1818,-0.177,-0.1759,-0.1745,-0.1786,-0.1729,-0.1766,-0.1784,-0.1777,-0.1781,-0.1785,-0.179,-0.1793,-0.1759,-0.1759,-0.1759,0,-0.1748,-0.1789,-0.181,-0.1848,-0.1861,-0.1861,-0.1889,-0.1886,-0.1877,-0.1866,-0.1845,-0.1819,-0.18,-0.18,-0.1809,-0.1803,-0.1779,-0.1753,-0.1786,-0.1789,-0.1791,-0.1795,-0.1797,-0.1763,-0.1762,-0.1762,-0.1762,0,-0.1791,-0.1819,-0.1841,-0.1881,-0.1896,-0.1922,-0.193,-0.1927,-0.1909,-0.1897,-0.1892,-0.1882,-0.1858,-0.1865,-0.1843,-0.1853,-0.1827,-0.1807,-0.1763,-0.1801,-0.1803,-0.1805,-0.1768,-0.1767,-0.1766,-0.1765,0,0,-0.1762,-0.1857,-0.1858,-0.1875,-0.1917,-0.1924,-0.1939,-0.1947,-0.1926,-0.193,-0.1911,-0.1928,-0.1915,-0.1901,-0.1891,-0.1885,-0.1908,-0.1842,-0.184,-0.1845,-0.1884,-0.1728,-0.1714,-0.1874,-0.1874,-0.1874,-0.1887,0,-0.1782,-0.1859,-0.1895,-0.1924,-0.1959,-0.1964,-0.196,-0.1957,-0.194,-0.1915,-0.1931,-0.1907,-0.1929,-0.191,-0.1922,-0.1888,-0.1908,-0.1905,-0.1845,-0.1844,-0.1698,-0.1709,-0.1522,-0.1503,-0.1888,-0.1888,-0.1888,0,-0.1805,-0.1854,-0.1916,-0.1938,-0.1949,-0.1957,-0.1936,-0.1933,-0.1917,-0.19,-0.1909,-0.1891,-0.1905,-0.1908,-0.1915,-0.1897,-0.1905,-0.1896,-0.1895,-0.1716,-0.1688,-0.1522,-0.1491,-0.1461,-0.189,-0.189,-0.189,0,-0.1772,-0.1846,-0.189,-0.1907,-0.1947,-0.1949,-0.1946,-0.1929,-0.1895,-0.1887,-0.1847,-0.1875,-0.1846,-0.1875,-0.187,-0.1878,-0.1854,-0.1869,-0.176,-0.1751,-0.1561,-0.1532,-0.1484,-0.1898,-0.1898,-0.1898,-0.1898,0,-0.1777,-0.1793,-0.1878,-0.1899,-0.1892,-0.1924,-0.189,-0.1886,-0.1857,-0.1794,-0.1832,-0.178,-0.1822,-0.1808,-0.1849,-0.1782,-0.1851,-0.1753,-0.1731,-0.1583,-0.1557,-0.1495,-0.1602,-0.1899,-0.1899,-0.1899,-0.1899,0,-0.1723,-0.1796,-0.183,-0.1886,-0.1888,-0.1874,-0.1846,-0.1804,-0.1794,-0.1716,-0.1704,-0.1684,-0.1654,-0.1703,-0.1718,-0.1704,-0.1657,-0.1678,-0.15,-0.1454,-0.1278,-0.1397,-0.14,-0.1358,-0.1539,-0.1535,-0.1532,0,-0.1702,-0.1732,-0.1798,-0.1798,-0.1823,-0.1809,-0.1777,-0.1772,-0.1717,-0.1641,-0.1584,-0.1541,-0.1482,-0.1451,-0.142,-0.1439,-0.1534,-0.1269,-0.1254,-0.1219,-0.134,-0.1445,-0.142,-0.1065,-0.1058,-0.1053,-0.1048,0,-0.1633,-0.1668,-0.1697,-0.1714,-0.1705,-0.1676,-0.1637,-0.1583,-0.1543,-0.1478,-0.1368,-0.1321,-0.1247,-0.1117,-0.1105,-0.1113,-0.1202,-0.1148,-0.1157,-0.0988,-0.1059,-0.102,-0.1139,-0.0998,-0.1003,-0.1006,-0.1009,-0.1011,-0.1541,-0.1546,-0.1588,-0.1587,-0.1578,-0.1517,-0.1446,-0.1394,-0.1291,-0.1135,-0.1163,-0.1016,-0.0888,-0.0811,-0.0801,-0.063,-0.0876,-0.0601,-0.0763,-0.0881,-0.0785,-0.0781,-0.0575,-0.0577,-0.058,-0.0581,-0.0583,0,-0.1404,-0.1432,-0.1439,-0.1431,-0.1379,-0.1414,-0.1315,-0.1215,-0.1065,-0.0929,-0.0825,-0.0595,-0.0458,-0.0382,-0.0231,-0.0237,-0.0284,-0.0293,-0.0414,-0.0417,-0.0405,-0.0315,0.0016,0.0015,0.0015,0.0015,0.0015,0.0015,-0.1326,-0.1303,-0.133,-0.1229,-0.1221,-0.1095,-0.1023,-0.0904,-0.0771,-0.0494,-0.0296,-0.0205,-0.0126,-0.021,-0.013,-0.0106,-0.0222,-0.0231,-0.0382,-0.0379,-0.042,-0.046,-0.039,-0.0081,-0.0081,-0.0231,-0.0233,-0.0235]},{"header":{"parameterUnit":"m.s-1","parameterCategory":2,"la1":30.2991,"la2":30.254,"lo1":-89.0895,"lo2":-89.0444,"dy":0.0017,"dx":0.0017,"nx":28,"ny":28,"refTime":"2024-07-05T09:00:00:Z","depth":"0","parameterNumber":3,"parameterNumberName":"V-component_of_CURRENTS"},"data":[0,0,0,0,0,0,0,0,0,0,0,0,0,0,0,0,0,0,0,0,0,0,0,0,0,0,0,0,0,0,0,0,0,0,0,0,0,0,0,0,0,0,0,0,0,0,0,0,0,0,0,0,0,0,0,0,0,0,-0.0359,-0.0358,0,-0.0273,-0.0271,-0.027,-0.0212,-0.0212,-0.0211,-0.0211,-0.0095,-0.0092,-0.009,0,0,0,0,0,0,0,0,0,0,0,0,0,-0.0361,-0.0361,-0.0359,-0.0358,-0.0357,-0.0273,-0.0271,-0.027,-0.0212,-0.0212,-0.0211,-0.0211,-0.0096,-0.0093,-0.0089,0,0,0,0,0,0,0,0,0,0,0,0,0,-0.0325,-0.0362,-0.0359,-0.0319,-0.0314,-0.0273,-0.0271,-0.027,-0.0212,-0.0212,-0.0211,-0.0211,-0.0097,-0.0093,-0.0089,-0.0071,0,0,-0.0076,-0.0074,0,0,0,0,0,0,0,0,-0.0327,-0.0325,-0.0326,-0.0322,-0.0317,-0.0254,-0.0229,-0.0202,-0.0212,-0.0249,-0.0211,-0.0211,-0.0147,-0.0138,-0.0121,-0.0066,-0.0061,-0.0075,-0.0073,-0.0071,-0.007,0,0,0,0,0,0,0,-0.033,-0.0327,-0.0323,-0.0325,-0.0319,-0.0267,-0.0262,-0.0223,-0.02,-0.0246,-0.0242,-0.0235,-0.0144,-0.0126,-0.0118,-0.0059,-0.0076,-0.0072,-0.0069,-0.0068,0.0014,0.0014,0,0,0,0,0,0,-0.035,-0.033,-0.0326,-0.0321,-0.0322,-0.0268,-0.0262,-0.0273,-0.0201,-0.019,-0.0235,-0.0233,-0.0133,-0.0123,-0.0114,-0.0107,-0.0071,-0.0067,-0.0065,0.0014,0.0014,0.0014,0,0,0,0,0,0,-0.035,-0.0351,-0.0329,-0.0323,-0.0317,-0.0269,-0.0281,-0.0272,-0.0254,-0.0193,-0.0181,-0.0227,-0.0132,-0.012,-0.0077,-0.0102,-0.0065,-0.0061,0.0015,0.0014,0.0014,-0.0082,0,0,0,0,0,0,-0.0351,-0.0352,-0.0362,-0.0326,-0.0318,-0.0312,-0.0281,-0.027,-0.0251,-0.0246,-0.0182,-0.0171,-0.0131,-0.0083,-0.0072,-0.0095,-0.0058,0.0015,0.0015,0.0014,-0.0079,-0.0086,-0.0092,0,0,0,0,0,-0.0352,-0.037,-0.0364,-0.0362,-0.0336,-0.0313,-0.0304,-0.0266,-0.0251,-0.0247,-0.0199,-0.0173,-0.0081,-0.008,-0.0067,-0.0089,0.0016,0.0015,0.0014,-0.0076,-0.0085,-0.0092,0,0,0,0,0,0,-0.038,-0.0365,-0.0357,-0.0372,-0.0348,-0.0303,-0.0295,-0.0272,-0.0231,-0.0226,-0.0168,-0.0154,-0.0129,-0.009,-0.0091,-0.0067,-0.0032,-0.003,-0.0105,-0.0112,-0.0119,-0.0161,-0.0055,0,0,0,0,0,-0.0393,-0.0402,-0.0376,-0.0388,-0.0379,-0.0339,-0.0323,-0.0301,-0.0263,-0.0244,-0.0198,-0.0154,-0.0123,-0.0102,-0.0063,-0.0044,-0.0058,-0.0052,-0.0059,-0.0065,-0.009,-0.0136,-0.0151,0.0011,0.0011,0.0011,0,0,-0.041,-0.04,-0.0407,-0.0394,-0.0371,-0.0365,-0.0328,-0.0313,-0.0313,-0.0238,-0.0216,-0.0173,-0.0121,-0.0103,-0.0089,-0.0074,-0.0117,-0.0066,-0.0072,-0.0094,-0.0139,-0.0155,-0.017,0.001,0.001,0.001,0,0,-0.0438,-0.0439,-0.0449,-0.0435,-0.0409,-0.0386,-0.0387,-0.0346,-0.0333,-0.0305,-0.0261,-0.0238,-0.0169,-0.0154,-0.0135,-0.0157,-0.0152,-0.0136,-0.0207,-0.0252,-0.0267,-0.028,-0.0325,-0.0341,-0.0141,-0.0141,-0.0142,0,-0.0456,-0.0472,-0.0447,-0.0449,-0.0444,-0.0402,-0.041,-0.0393,-0.0344,-0.0349,-0.0309,-0.026,-0.0205,-0.022,-0.0217,-0.0178,-0.02,-0.0182,-0.0266,-0.0279,-0.0291,-0.0334,-0.0351,-0.0146,-0.0146,-0.0145,-0.0145,0,-0.049,-0.0498,-0.0503,-0.0497,-0.0487,-0.0489,-0.0466,-0.046,-0.0435,-0.0421,-0.0424,-0.0362,-0.0343,-0.0318,-0.0265,-0.0322,-0.0309,-0.0272,-0.0256,-0.0314,-0.0354,-0.037,-0.0153,-0.0151,-0.015,-0.0149,0,0,-0.0541,-0.053,-0.0531,-0.0535,-0.0516,-0.0513,-0.0526,-0.0533,-0.0562,-0.0523,-0.057,-0.0507,-0.0491,-0.0469,-0.0419,-0.0443,-0.0527,-0.0394,-0.0394,-0.0459,-0.0638,-0.0512,-0.0517,-0.0508,-0.0511,-0.0514,-0.0635,0,-0.0574,-0.0591,-0.0576,-0.0596,-0.0604,-0.0584,-0.0603,-0.0607,-0.0607,-0.064,-0.0622,-0.0631,-0.0547,-0.0545,-0.0562,-0.0539,-0.0573,-0.0498,-0.0554,-0.0556,-0.0454,-0.0533,-0.038,-0.0465,-0.0651,-0.0653,-0.0655,0,-0.0612,-0.0618,-0.0643,-0.0654,-0.0657,-0.0664,-0.0704,-0.0715,-0.0758,-0.0764,-0.0793,-0.0777,-0.0813,-0.0725,-0.0768,-0.0726,-0.0694,-0.0673,-0.0677,-0.0541,-0.046,-0.0432,-0.0487,-0.0196,-0.068,-0.0678,-0.0676,0,-0.0659,-0.0666,-0.0689,-0.0692,-0.0698,-0.0716,-0.0723,-0.0757,-0.0793,-0.0859,-0.0905,-0.0939,-0.0969,-0.0958,-0.0899,-0.0848,-0.095,-0.0874,-0.0744,-0.0735,-0.0607,-0.058,-0.0403,-0.0919,-0.0919,-0.0919,-0.0918,0,-0.0707,-0.0723,-0.0712,-0.0728,-0.0766,-0.0757,-0.0816,-0.0835,-0.0898,-0.0967,-0.0975,-0.1053,-0.1027,-0.1065,-0.0993,-0.0933,-0.1034,-0.0788,-0.0767,-0.0631,-0.0606,-0.0344,-0.0282,-0.0923,-0.0922,-0.0921,-0.092,0,-0.0754,-0.0749,-0.0773,-0.0783,-0.0788,-0.0816,-0.0857,-0.091,-0.096,-0.1063,-0.1095,-0.1177,-0.124,-0.1206,-0.1209,-0.1048,-0.0853,-0.0948,-0.0787,-0.0741,-0.028,-0.0232,-0.0201,-0.0075,-0.0825,-0.0823,-0.0821,0,-0.0781,-0.0797,-0.0809,-0.0826,-0.0829,-0.0864,-0.0898,-0.0939,-0.0998,-0.1137,-0.1201,-0.1306,-0.1371,-0.1336,-0.1146,-0.1036,-0.0847,-0.0725,-0.0571,-0.0252,-0.0186,-0.0182,-0.0078,-0.0457,-0.0453,-0.0449,-0.0446,0,-0.0827,-0.0824,-0.084,-0.0869,-0.0899,-0.0939,-0.0986,-0.104,-0.1111,-0.1201,-0.1341,-0.1413,-0.1395,-0.1219,-0.1019,-0.0885,-0.0492,-0.0635,-0.0362,0.0064,0.0125,0.0259,-0.0384,-0.0411,-0.0415,-0.0417,-0.0419,-0.042,-0.0851,-0.0871,-0.088,-0.0909,-0.0943,-0.099,-0.1005,-0.1079,-0.1166,-0.1249,-0.1383,-0.1408,-0.1103,-0.0837,-0.0701,-0.0119,-0.03,0.0156,0.0161,0.0118,0.0334,-0.0219,-0.0167,-0.0169,-0.0171,-0.0172,-0.0174,0,-0.0876,-0.0889,-0.0918,-0.0944,-0.0972,-0.0985,-0.1043,-0.1044,-0.1116,-0.1171,-0.1264,-0.0987,-0.061,-0.0254,0.042,0.0723,0.0753,0.0875,0.095,0.1,0.049,0.062,0.0917,0.0917,0.0916,0.0916,0.0916,0.0915,-0.0888,-0.0914,-0.0924,-0.0952,-0.0965,-0.095,-0.096,-0.0976,-0.0967,-0.0894,-0.0768,-0.0732,-0.0136,0.0731,0.1434,0.1496,0.1694,0.1603,0.1656,0.1402,0.1338,0.1277,0.1426,0.1887,0.1887,0.2243,0.2246,0.2249]}],[{"header":{"parameterUnit":"m.s-1","parameterCategory":2,"la1":30.2991,"la2":30.254,"lo1":-89.0895,"lo2":-89.0444,"dy":0.0017,"dx":0.0017,"nx":28,"ny":28,"refTime":"2024-07-05T09:00:00:Z","depth":"2","parameterNumber":2,"parameterNumberName":"U-component_of_CURRENTS"},"data":[0,0,0,0,0,0,0,0,0,0,0,0,0,0,0,0,0,0,0,0,0,0,0,0,0,0,0,0,0,0,0,0,0,0,0,0,0,0,0,0,0,0,0,0,0,0,0,0,0,0,0,0,0,0,0,0,0,0,-0.267,-0.2671,0,-0.2732,-0.2732,-0.2733,-0.2713,-0.2711,-0.271,-0.2709,-0.2599,-0.2597,-0.2596,0,0,0,0,0,0,0,0,0,0,0,0,0,-0.2315,-0.2322,-0.267,-0.2671,-0.2672,-0.2732,-0.2732,-0.2733,-0.2713,-0.2711,-0.271,-0.2709,-0.26,-0.2598,-0.2595,0,0,0,0,0,0,0,0,0,0,0,0,0,-0.243,-0.2325,-0.267,-0.2671,-0.2671,-0.2731,-0.2732,-0.2733,-0.2713,-0.2711,-0.271,-0.2708,-0.2601,-0.2598,-0.2595,-0.2611,0,0,-0.2586,-0.2585,0,0,0,0,0,0,0,0,-0.2424,-0.2443,-0.2669,-0.2671,-0.2672,-0.2715,-0.2567,-0.2685,-0.2714,-0.2695,-0.2709,-0.2707,-0.2625,-0.262,-0.2634,-0.2606,-0.2602,-0.2586,-0.2584,-0.2583,-0.2582,0,0,0,0,0,0,0,-0.2416,-0.2439,-0.2692,-0.2671,-0.2672,-0.2593,-0.2609,-0.2588,-0.2663,-0.2696,-0.2696,-0.2707,-0.2623,-0.2637,-0.2631,-0.26,-0.2586,-0.2584,-0.2582,-0.2581,-0.2546,-0.2547,0,0,0,0,0,0,-0.2429,-0.2434,-0.269,-0.2694,-0.2544,-0.2602,-0.2619,-0.2701,-0.2667,-0.2663,-0.2708,-0.2706,-0.2643,-0.2635,-0.2627,-0.2645,-0.2583,-0.2581,-0.2579,-0.2546,-0.2547,-0.2547,0,0,0,0,0,0,-0.2422,-0.2454,-0.2688,-0.2561,-0.2586,-0.2611,-0.2701,-0.2703,-0.2704,-0.2679,-0.267,-0.2706,-0.2641,-0.2631,-0.2601,-0.264,-0.2579,-0.2577,-0.2545,-0.2546,-0.2547,-0.268,0,0,0,0,0,0,-0.2413,-0.2453,-0.2513,-0.2566,-0.2594,-0.2735,-0.2703,-0.2705,-0.2716,-0.2712,-0.2674,-0.2664,-0.2639,-0.2605,-0.2598,-0.2635,-0.2575,-0.2544,-0.2545,-0.2547,-0.2675,-0.2686,-0.2695,0,0,0,0,0,-0.2401,-0.2475,-0.2517,-0.2547,-0.268,-0.2737,-0.2744,-0.2749,-0.2717,-0.2739,-0.2695,-0.2664,-0.2609,-0.2604,-0.2595,-0.2632,-0.2543,-0.2545,-0.2546,-0.267,-0.2684,-0.2695,0,0,0,0,0,0,-0.2364,-0.2483,-0.2528,-0.2644,-0.2698,-0.2734,-0.2737,-0.2748,-0.2736,-0.2714,-0.2671,-0.2659,-0.2653,-0.2614,-0.2609,-0.2623,-0.2572,-0.2572,-0.2669,-0.2681,-0.2691,-0.2609,-0.2572,0,0,0,0,0,-0.239,-0.2465,-0.2568,-0.2653,-0.2674,-0.2707,-0.2725,-0.2745,-0.2743,-0.2737,-0.2703,-0.2666,-0.2659,-0.2644,-0.2624,-0.2627,-0.2568,-0.2643,-0.2653,-0.2662,-0.2587,-0.2556,-0.2556,-0.2553,-0.2553,-0.2553,0,0,-0.24,-0.2469,-0.2518,-0.2646,-0.2668,-0.2715,-0.2711,-0.2746,-0.2777,-0.2723,-0.2711,-0.2697,-0.2665,-0.2679,-0.2673,-0.2648,-0.2649,-0.2664,-0.2673,-0.259,-0.2557,-0.2557,-0.2557,-0.2554,-0.2554,-0.2554,0,0,-0.2417,-0.2515,-0.257,-0.2619,-0.2682,-0.2709,-0.272,-0.2764,-0.2772,-0.2797,-0.2759,-0.2759,-0.2738,-0.2733,-0.2728,-0.2773,-0.2705,-0.2771,-0.2757,-0.2732,-0.2731,-0.2729,-0.2729,-0.2725,-0.2777,-0.2778,-0.2778,0,-0.2429,-0.2531,-0.2588,-0.2639,-0.2648,-0.2702,-0.273,-0.2776,-0.2804,-0.2755,-0.2801,-0.2736,-0.2769,-0.2734,-0.2782,-0.2799,-0.2751,-0.2729,-0.2745,-0.2741,-0.2737,-0.2736,-0.2731,-0.2784,-0.2783,-0.2783,-0.2782,0,-0.2473,-0.2559,-0.2573,-0.2662,-0.2679,-0.2717,-0.2774,-0.2769,-0.2779,-0.2792,-0.2757,-0.2811,-0.2748,-0.2812,-0.2828,-0.2804,-0.2774,-0.2771,-0.2717,-0.2745,-0.2744,-0.2736,-0.2794,-0.2791,-0.2789,-0.2788,0,0,-0.2481,-0.2595,-0.2593,-0.2608,-0.2688,-0.2686,-0.2706,-0.27,-0.2659,-0.2718,-0.2658,-0.2735,-0.2717,-0.2706,-0.2742,-0.2752,-0.2797,-0.2747,-0.2743,-0.2749,-0.2727,-0.2554,-0.2529,-0.278,-0.2778,-0.2776,-0.2765,0,-0.2495,-0.2574,-0.2609,-0.2628,-0.2661,-0.2656,-0.2647,-0.2632,-0.2653,-0.2623,-0.2651,-0.2652,-0.27,-0.2712,-0.272,-0.2773,-0.2764,-0.2798,-0.2688,-0.2684,-0.2529,-0.2508,-0.2298,-0.2251,-0.2756,-0.2755,-0.2754,0,-0.2498,-0.2556,-0.2597,-0.2575,-0.2569,-0.2587,-0.2483,-0.248,-0.2452,-0.2472,-0.2443,-0.2479,-0.2511,-0.2587,-0.2599,-0.2603,-0.2639,-0.2685,-0.2685,-0.2436,-0.249,-0.2287,-0.2217,-0.2739,-0.2741,-0.2742,-0.2743,0,-0.2412,-0.2494,-0.2503,-0.2522,-0.2549,-0.25,-0.246,-0.2412,-0.2371,-0.2379,-0.2393,-0.2376,-0.2443,-0.2434,-0.2555,-0.2565,-0.2568,-0.2611,-0.2461,-0.2454,-0.2197,-0.2166,-0.2557,-0.2557,-0.2557,-0.2557,-0.2557,0,-0.2391,-0.2378,-0.2482,-0.2495,-0.2436,-0.2434,-0.2332,-0.2309,-0.2288,-0.2245,-0.2308,-0.2328,-0.2405,-0.2436,-0.249,-0.2436,-0.2511,-0.2397,-0.2403,-0.2246,-0.2221,-0.2561,-0.2561,-0.2556,-0.2556,-0.2557,-0.2557,0,-0.2287,-0.2371,-0.2376,-0.242,-0.2417,-0.235,-0.2278,-0.2196,-0.2226,-0.2203,-0.2216,-0.2295,-0.2329,-0.2379,-0.2433,-0.2367,-0.2351,-0.2311,-0.2128,-0.2105,-0.2271,-0.228,-0.2102,-0.2095,-0.2089,-0.2084,-0.208,0,-0.2239,-0.2261,-0.2305,-0.2298,-0.2333,-0.2261,-0.2183,-0.2164,-0.2128,-0.2182,-0.2177,-0.2232,-0.2237,-0.2209,-0.2103,-0.2045,-0.2232,-0.1815,-0.1767,-0.2182,-0.2208,-0.2226,-0.2242,-0.1546,-0.1538,-0.1531,-0.1526,0,-0.2141,-0.2161,-0.2165,-0.2191,-0.216,-0.2063,-0.2014,-0.2009,-0.1988,-0.2037,-0.208,-0.209,-0.2019,-0.1834,-0.1726,-0.1671,-0.1792,-0.1667,-0.2133,-0.1667,-0.1647,-0.1678,-0.1713,-0.1466,-0.1472,-0.1476,-0.1479,-0.1482,-0.2019,-0.2011,-0.2035,-0.2019,-0.1968,-0.188,-0.178,-0.1802,-0.1759,-0.1788,-0.1893,-0.1875,-0.1785,-0.15,-0.1353,-0.1204,-0.1345,-0.1286,-0.1312,-0.1343,-0.1253,-0.122,-0.0946,-0.0949,-0.0951,-0.0954,-0.0955,0,-0.1885,-0.1875,-0.1856,-0.1813,-0.1685,-0.1715,-0.1635,-0.1555,-0.1537,-0.1569,-0.1577,-0.1442,-0.1257,-0.1223,-0.0847,-0.0681,-0.0719,-0.0674,-0.0763,-0.0818,-0.0869,-0.0762,-0.0321,-0.032,-0.0319,-0.0318,0,0,-0.1815,-0.1746,-0.1747,-0.1537,-0.1489,-0.1296,-0.1234,-0.1215,-0.12,-0.1182,-0.1184,-0.1242,-0.1215,-0.087,-0.0653,-0.044,-0.0644,-0.038,-0.0877,-0.1039,-0.109,-0.1184,-0.1074,0,0,0,0,0]},{"header":{"parameterUnit":"m.s-1","parameterCategory":2,"la1":30.2991,"la2":30.254,"lo1":-89.0895,"lo2":-89.0444,"dy":0.0017,"dx":0.0017,"nx":28,"ny":28,"refTime":"2024-07-05T09:00:00:Z","depth":"2","parameterNumber":3,"parameterNumberName":"V-component_of_CURRENTS"},"data":[0,0,0,0,0,0,0,0,0,0,0,0,0,0,0,0,0,0,0,0,0,0,0,0,0,0,0,0,0,0,0,0,0,0,0,0,0,0,0,0,0,0,0,0,0,0,0,0,0,0,0,0,0,0,0,0,0,0,-0.0005,-0.0004,0,0.0121,0.0123,0.0124,0.0192,0.0191,0.0191,0.0191,0.0349,0.0353,0.0357,0,0,0,0,0,0,0,0,0,0,0,0,0,-0.0053,-0.0053,-0.0005,-0.0004,-0.0003,0.0121,0.0123,0.0125,0.0192,0.0191,0.0191,0.0191,0.0348,0.0353,0.0358,0,0,0,0,0,0,0,0,0,0,0,0,0,0.0012,-0.0053,-0.0006,0.0043,0.0049,0.012,0.0123,0.0125,0.0192,0.0191,0.0191,0.0191,0.0346,0.0352,0.0359,0.0402,0,0,0.0378,0.0381,0,0,0,0,0,0,0,0,0.0008,0.0014,0.0035,0.004,0.0046,0.0138,0.0164,0.0219,0.0192,0.014,0.0191,0.0191,0.028,0.0292,0.0319,0.041,0.0417,0.0379,0.0383,0.0386,0.0388,0,0,0,0,0,0,0,0.0003,0.001,0.0047,0.0036,0.0043,0.0106,0.0114,0.0175,0.0212,0.0145,0.0149,0.0159,0.0283,0.0313,0.0323,0.0419,0.0379,0.0385,0.0389,0.0391,0.0564,0.0565,0,0,0,0,0,0,-0.0025,0.0004,0.0043,0.0051,0.0023,0.0106,0.0115,0.0111,0.0211,0.0225,0.0159,0.0162,0.0302,0.0316,0.0329,0.0412,0.0386,0.0392,0.0395,0.0563,0.0564,0.0565,0,0,0,0,0,0,-0.0027,-0.0023,0.0038,0.003,0.0041,0.0105,0.0101,0.0113,0.0127,0.0221,0.0236,0.0157,0.0302,0.032,0.0378,0.0418,0.0395,0.0401,0.0562,0.0564,0.0565,0.0562,0,0,0,0,0,0,-0.0029,-0.0025,-0.0044,0.0027,0.0041,0.007,0.0102,0.0116,0.0133,0.0137,0.0225,0.0241,0.0304,0.0368,0.0385,0.0426,0.0406,0.0562,0.0563,0.0564,0.0561,0.0563,0.0564,0,0,0,0,0,-0.0031,-0.0059,-0.0046,-0.0041,0.0014,0.007,0.0083,0.0131,0.0132,0.0141,0.02,0.0237,0.0389,0.0374,0.0393,0.0438,0.0561,0.0563,0.0564,0.056,0.0562,0.0564,0,0,0,0,0,0,-0.0085,-0.0052,-0.0037,-0.0053,-0.0001,0.0079,0.0081,0.0114,0.0167,0.0163,0.0245,0.0266,0.0332,0.0374,0.0355,0.0488,0.0482,0.0487,0.0472,0.0475,0.0476,0.0422,0.0411,0,0,0,0,0,-0.0108,-0.0129,-0.0065,-0.008,-0.0062,0.0004,0.0026,0.0064,0.0122,0.0143,0.0207,0.0277,0.0358,0.0402,0.0465,0.0537,0.0541,0.0576,0.0578,0.0579,0.0546,0.0578,0.0579,0.057,0.057,0.057,0,0,-0.0138,-0.0121,-0.0135,-0.0094,-0.0057,-0.0025,0.0017,0.0043,0.0079,0.0153,0.0203,0.0275,0.0371,0.0457,0.0492,0.0498,0.0589,0.0581,0.0582,0.0547,0.058,0.0581,0.0581,0.0571,0.0571,0.0571,0,0,-0.019,-0.0189,-0.0213,-0.0171,-0.0122,-0.0069,-0.007,0.0005,0.0043,0.0109,0.0177,0.0272,0.0368,0.0473,0.0534,0.0578,0.0585,0.0587,0.0571,0.0604,0.0605,0.0605,0.0629,0.0631,0.0602,0.0602,0.0602,0,-0.0226,-0.0238,-0.0206,-0.0196,-0.0172,-0.0097,-0.0087,-0.0026,0.0062,0.0069,0.0114,0.0262,0.039,0.049,0.0543,0.0589,0.057,0.0563,0.0605,0.0605,0.0605,0.0629,0.0632,0.0602,0.0602,0.0602,0.0602,0,-0.0271,-0.0275,-0.0284,-0.0251,-0.0218,-0.0199,-0.0111,-0.0084,-0.0033,0.0019,0.0094,0.0263,0.0341,0.0432,0.0526,0.0596,0.0571,0.0592,0.0595,0.0606,0.0631,0.0634,0.0602,0.0602,0.0602,0.0602,0,0,-0.0362,-0.0326,-0.0329,-0.0314,-0.0246,-0.0217,-0.0183,-0.0134,-0.0128,-0.0028,-0.0006,0.0208,0.0251,0.0323,0.0452,0.0538,0.0614,0.0565,0.0567,0.0579,0.0642,0.0678,0.0685,0.0609,0.0609,0.0609,0.0665,0,-0.0403,-0.0408,-0.0373,-0.0358,-0.0348,-0.0283,-0.0258,-0.0211,-0.0147,-0.0103,0.0035,0.0122,0.0222,0.0299,0.0383,0.0567,0.0613,0.0594,0.0636,0.0637,0.0661,0.0687,0.0734,0.0789,0.0667,0.0668,0.0668,0,-0.0452,-0.0446,-0.0458,-0.0418,-0.0411,-0.0387,-0.0358,-0.0316,-0.0256,-0.0215,-0.0161,-0.0065,0.0104,0.0196,0.0396,0.0354,0.0472,0.0599,0.0603,0.0627,0.0678,0.0757,0.0799,0.0673,0.0672,0.0672,0.0672,0,-0.0527,-0.0499,-0.0516,-0.0498,-0.0448,-0.045,-0.0416,-0.0376,-0.035,-0.0281,-0.0258,-0.0144,-0.0019,0.0101,0.0337,0.0366,0.0518,0.0603,0.0712,0.0716,0.0761,0.0768,0.0677,0.0677,0.0677,0.0677,0.0677,0,-0.0582,-0.0589,-0.0551,-0.0553,-0.0564,-0.0511,-0.0514,-0.0481,-0.0432,-0.0421,-0.0319,-0.0279,-0.0041,0.0069,0.0255,0.0466,0.043,0.0694,0.0731,0.0765,0.0772,0.0668,0.0666,0.0679,0.0678,0.0678,0.0678,0,-0.066,-0.0643,-0.0648,-0.0614,-0.0599,-0.0606,-0.0555,-0.0549,-0.0514,-0.0484,-0.0462,-0.0353,-0.0217,-0.0039,0.021,0.0397,0.0591,0.0644,0.0661,0.07,0.0795,0.0792,0.0841,0.0843,0.0844,0.0845,0.0846,0,-0.07,-0.0719,-0.0695,-0.0692,-0.0672,-0.0661,-0.0649,-0.0599,-0.058,-0.0541,-0.0523,-0.0421,-0.0336,-0.0015,0.0334,0.061,0.0527,0.0782,0.0897,0.078,0.0811,0.0806,0.0802,0.0967,0.0969,0.0971,0.0972,0,-0.0765,-0.0767,-0.0766,-0.0762,-0.0746,-0.072,-0.0687,-0.0688,-0.0643,-0.0624,-0.0605,-0.0541,-0.0223,0.0143,0.0493,0.0645,0.0762,0.0829,0.0685,0.0913,0.0903,0.0931,0.0923,0.0986,0.0984,0.0983,0.0983,0.0982,-0.0807,-0.0827,-0.0825,-0.0815,-0.079,-0.0758,-0.074,-0.0716,-0.0701,-0.0637,-0.0621,-0.0375,-0.0063,0.0597,0.0674,0.0843,0.0945,0.1032,0.1026,0.1018,0.1018,0.101,0.1113,0.1112,0.1111,0.1111,0.111,0,-0.084,-0.0854,-0.0859,-0.0835,-0.0802,-0.078,-0.0742,-0.0712,-0.0695,-0.0588,-0.0529,-0.0045,0.0358,0.0592,0.1001,0.117,0.1118,0.1035,0.0998,0.0991,0.0984,0.0976,0.1062,0.106,0.1058,0.1057,0,0,-0.0858,-0.0871,-0.0869,-0.0827,-0.081,-0.0751,-0.0726,-0.0692,-0.059,-0.0479,-0.0186,0.0163,0.0575,0.0815,0.0907,0.0997,0.0881,0.0922,0.0984,0.0917,0.0902,0.1052,0.1044,0,0,0,0,0]}],[{"header":{"parameterUnit":"m.s-1","parameterCategory":2,"la1":30.2991,"la2":30.254,"lo1":-89.0895,"lo2":-89.0444,"dy":0.0017,"dx":0.0017,"nx":28,"ny":28,"refTime":"2024-07-05T09:00:00:Z","depth":"4","parameterNumber":2,"parameterNumberName":"U-component_of_CURRENTS"},"data":[0,0,0,0,0,0,0,0,0,0,0,0,0,0,0,0,0,0,0,0,0,0,0,0,0,0,0,0,0,0,0,0,0,0,0,0,0,0,0,0,0,0,0,0,0,0,0,0,0,0,0,0,0,0,0,0,0,0,-0.1383,-0.1385,0,-0.1503,-0.1504,-0.1505,-0.1543,-0.1543,-0.1542,-0.1542,-0.1601,-0.1603,-0.1605,0,0,0,0,0,0,0,0,0,0,0,0,0,-0.1271,-0.1272,-0.1383,-0.1385,-0.1387,-0.1503,-0.1504,-0.1506,-0.1543,-0.1543,-0.1542,-0.1542,-0.16,-0.1603,-0.1605,0,0,0,0,0,0,0,0,0,0,0,0,0,-0.1346,-0.1272,-0.1383,-0.142,-0.1425,-0.1502,-0.1504,-0.1506,-0.1543,-0.1543,-0.1542,-0.1541,-0.16,-0.1603,-0.1606,-0.1637,0,0,-0.1615,-0.1616,0,0,0,0,0,0,0,0,-0.1342,-0.135,-0.1413,-0.1418,-0.1423,-0.1509,-0.1486,-0.1547,-0.1543,-0.1497,-0.1542,-0.1541,-0.1566,-0.1572,-0.1594,-0.1639,-0.1642,-0.1615,-0.1617,-0.1618,-0.1619,0,0,0,0,0,0,0,-0.1336,-0.1346,-0.1429,-0.1415,-0.1421,-0.146,-0.1469,-0.1499,-0.1531,-0.1501,-0.1504,-0.152,-0.1568,-0.1592,-0.1596,-0.1643,-0.1615,-0.1617,-0.1619,-0.162,-0.1761,-0.1762,0,0,0,0,0,0,-0.1321,-0.134,-0.1425,-0.1433,-0.1382,-0.1462,-0.1472,-0.1481,-0.1532,-0.1541,-0.152,-0.1521,-0.1587,-0.1592,-0.1598,-0.1658,-0.1618,-0.1621,-0.1622,-0.1759,-0.1761,-0.1763,0,0,0,0,0,0,-0.1318,-0.1327,-0.1421,-0.1391,-0.1406,-0.1464,-0.1474,-0.1483,-0.1524,-0.1548,-0.1555,-0.1553,-0.1587,-0.1594,-0.164,-0.1659,-0.1622,-0.1625,-0.1756,-0.1759,-0.1762,-0.1764,0,0,0,0,0,0,-0.1314,-0.1325,-0.1334,-0.139,-0.1407,-0.1469,-0.1475,-0.1486,-0.1535,-0.1537,-0.1578,-0.1582,-0.1587,-0.1635,-0.1643,-0.1663,-0.1627,-0.1754,-0.1758,-0.1761,-0.1762,-0.1767,-0.1771,0,0,0,0,0,-0.131,-0.1321,-0.1334,-0.1345,-0.1414,-0.147,-0.1482,-0.1521,-0.1537,-0.1555,-0.1588,-0.1582,-0.1664,-0.1639,-0.1647,-0.1669,-0.1752,-0.1757,-0.1761,-0.176,-0.1766,-0.1771,0,0,0,0,0,0,-0.1285,-0.1328,-0.1343,-0.1369,-0.1417,-0.1476,-0.1503,-0.1535,-0.158,-0.1587,-0.1606,-0.1613,-0.1654,-0.1674,-0.1647,-0.1724,-0.1708,-0.1714,-0.1704,-0.1711,-0.1715,-0.1728,-0.1629,0,0,0,0,0,-0.1282,-0.1296,-0.135,-0.1374,-0.1397,-0.1456,-0.1488,-0.1519,-0.1564,-0.1585,-0.1617,-0.1653,-0.1679,-0.1704,-0.1726,-0.1777,-0.1775,-0.18,-0.1805,-0.1808,-0.1828,-0.1836,-0.1842,-0.1778,-0.1777,-0.1777,0,0,-0.128,-0.1306,-0.1316,-0.1369,-0.141,-0.1453,-0.1473,-0.1527,-0.1573,-0.1583,-0.1651,-0.1665,-0.1695,-0.1738,-0.1761,-0.1759,-0.1824,-0.1814,-0.1816,-0.1835,-0.1841,-0.1847,-0.1852,-0.178,-0.178,-0.1779,0,0,-0.1278,-0.1307,-0.1318,-0.1364,-0.1427,-0.1464,-0.1483,-0.1555,-0.1593,-0.1657,-0.167,-0.1703,-0.1761,-0.1782,-0.1799,-0.1854,-0.1839,-0.1866,-0.1911,-0.1917,-0.1921,-0.1925,-0.191,-0.1913,-0.1879,-0.1879,-0.1879,0,-0.1278,-0.1299,-0.1334,-0.1369,-0.1414,-0.1469,-0.1511,-0.1562,-0.1643,-0.1685,-0.1678,-0.1771,-0.1781,-0.184,-0.1855,-0.1861,-0.1859,-0.1876,-0.1919,-0.1924,-0.1928,-0.1912,-0.1915,-0.188,-0.188,-0.188,-0.1879,0,-0.1285,-0.1319,-0.1337,-0.1392,-0.1444,-0.1491,-0.1566,-0.1627,-0.1676,-0.1725,-0.1798,-0.1817,-0.1873,-0.1879,-0.1883,-0.1933,-0.1917,-0.1908,-0.1894,-0.1934,-0.1915,-0.1918,-0.1881,-0.188,-0.188,-0.188,0,0,-0.1248,-0.1322,-0.1336,-0.1372,-0.1465,-0.1511,-0.1596,-0.1685,-0.1748,-0.1811,-0.1878,-0.1924,-0.1941,-0.1963,-0.1971,-0.1986,-0.1992,-0.197,-0.1969,-0.1936,-0.1995,-0.1809,-0.1795,-0.1987,-0.1988,-0.1989,-0.1961,0,-0.1248,-0.1302,-0.135,-0.1427,-0.1465,-0.1559,-0.1636,-0.1732,-0.1798,-0.1874,-0.1918,-0.1966,-0.1972,-0.1987,-0.2009,-0.199,-0.2005,-0.2,-0.198,-0.1979,-0.1794,-0.1794,-0.1993,-0.1963,-0.1964,-0.1964,-0.1964,0,-0.1241,-0.1281,-0.1344,-0.1452,-0.1482,-0.154,-0.1679,-0.1758,-0.1878,-0.1929,-0.1998,-0.2022,-0.2067,-0.2047,-0.2065,-0.2062,-0.2043,-0.2026,-0.2024,-0.1857,-0.1799,-0.1924,-0.197,-0.1969,-0.1969,-0.1968,-0.1968,0,-0.1189,-0.1284,-0.1331,-0.1372,-0.1498,-0.1559,-0.1637,-0.1772,-0.1845,-0.1955,-0.1989,-0.2062,-0.2064,-0.2082,-0.2048,-0.2063,-0.2035,-0.2042,-0.1867,-0.1854,-0.2029,-0.2025,-0.2061,-0.2061,-0.2061,-0.2061,-0.2061,0,-0.1161,-0.1211,-0.1312,-0.1343,-0.1423,-0.1532,-0.1634,-0.1728,-0.1846,-0.1896,-0.2001,-0.2,-0.2071,-0.206,-0.2055,-0.1943,-0.2038,-0.187,-0.1832,-0.2029,-0.2026,-0.2029,-0.2025,-0.206,-0.206,-0.206,-0.206,0,-0.1097,-0.1163,-0.1223,-0.1347,-0.1394,-0.1453,-0.1609,-0.1679,-0.1798,-0.1854,-0.188,-0.1951,-0.1909,-0.1954,-0.1941,-0.1898,-0.1844,-0.1789,-0.1977,-0.1952,-0.1667,-0.1665,-0.1599,-0.1593,-0.1587,-0.1582,-0.1578,0,-0.1065,-0.1087,-0.1203,-0.1241,-0.1294,-0.1404,-0.1482,-0.1635,-0.1691,-0.1779,-0.1773,-0.1773,-0.1795,-0.1635,-0.1698,-0.1673,-0.1662,-0.1648,-0.1687,-0.1648,-0.162,-0.1627,-0.1632,-0.1569,-0.1567,-0.1566,-0.1564,0,-0.1003,-0.1048,-0.1092,-0.1156,-0.1227,-0.132,-0.1421,-0.1447,-0.1591,-0.169,-0.1605,-0.1568,-0.1506,-0.1485,-0.147,-0.146,-0.1668,-0.1588,-0.1601,-0.1638,-0.1611,-0.159,-0.1602,-0.1544,-0.1547,-0.1549,-0.155,0,-0.0952,-0.0959,-0.1012,-0.1066,-0.1148,-0.1202,-0.1279,-0.1317,-0.1383,-0.1478,-0.141,-0.1409,-0.1443,-0.1367,-0.1345,-0.132,-0.132,-0.1317,-0.1345,-0.1368,-0.1307,-0.1239,-0.1017,0,0,0,0,0,-0.0894,-0.0894,-0.0929,-0.0978,-0.1053,-0.1107,-0.1231,-0.1312,-0.1417,-0.1309,-0.1366,-0.129,-0.1213,-0.1212,-0.114,-0.127,-0.1355,-0.1186,-0.1374,-0.1433,-0.1456,-0.1406,0,0,0,0,0,0,-0.0852,-0.0872,-0.0889,-0.0899,-0.0919,-0.0999,-0.1072,-0.1147,-0.111,-0.1193,-0.1151,-0.1199,-0.1149,-0.1211,-0.1099,-0.1108,-0.12,-0.1198,-0.1195,-0.142,-0.1441,-0.146,-0.1416,0,0,0,0,0]},{"header":{"parameterUnit":"m.s-1","parameterCategory":2,"la1":30.2991,"la2":30.254,"lo1":-89.0895,"lo2":-89.0444,"dy":0.0017,"dx":0.0017,"nx":28,"ny":28,"refTime":"2024-07-05T09:00:00:Z","depth":"4","parameterNumber":3,"parameterNumberName":"V-component_of_CURRENTS"},"data":[0,0,0,0,0,0,0,0,0,0,0,0,0,0,0,0,0,0,0,0,0,0,0,0,0,0,0,0,0,0,0,0,0,0,0,0,0,0,0,0,0,0,0,0,0,0,0,0,0,0,0,0,0,0,0,0,0,0,-0.0072,-0.0072,0,-0.0076,-0.0076,-0.0076,-0.0038,-0.0037,-0.0036,-0.0036,0.0038,0.0039,0.004,0,0,0,0,0,0,0,0,0,0,0,0,0,-0.004,-0.004,-0.0072,-0.0072,-0.0073,-0.0076,-0.0076,-0.0076,-0.0038,-0.0037,-0.0036,-0.0035,0.0038,0.0039,0.004,0,0,0,0,0,0,0,0,0,0,0,0,0,-0.0049,-0.004,-0.0072,-0.0055,-0.0054,-0.0076,-0.0076,-0.0076,-0.0039,-0.0037,-0.0036,-0.0035,0.0037,0.0039,0.004,0.0022,0,0,0.0045,0.0046,0,0,0,0,0,0,0,0,-0.0048,-0.005,-0.0057,-0.0056,-0.0055,-0.0056,-0.0037,-0.004,-0.0039,-0.0043,-0.0035,-0.0034,0.0012,0.0016,0.0012,0.0025,0.0029,0.0045,0.0046,0.0047,0.0047,0,0,0,0,0,0,0,-0.0048,-0.0049,-0.0073,-0.0058,-0.0056,-0.0049,-0.0049,-0.0038,-0.0021,-0.0043,-0.004,-0.0043,0.0014,0.001,0.0014,0.003,0.0045,0.0047,0.0048,0.0048,0.0055,0.0054,0,0,0,0,0,0,-0.0051,-0.0049,-0.0073,-0.0073,-0.0049,-0.0051,-0.0051,-0.0056,-0.0023,-0.0018,-0.0044,-0.0041,0.0007,0.0012,0.0017,0.0013,0.0047,0.0049,0.0049,0.0056,0.0055,0.0054,0,0,0,0,0,0,-0.005,-0.0053,-0.0072,-0.0061,-0.0063,-0.0053,-0.006,-0.0057,-0.0052,-0.0025,-0.0017,-0.0041,0.0008,0.0015,0.0023,0.0016,0.0049,0.0051,0.0057,0.0055,0.0054,-0.0005,0,0,0,0,0,0,-0.0049,-0.0053,-0.0057,-0.0062,-0.0064,-0.0092,-0.0061,-0.0058,-0.0057,-0.0053,-0.002,-0.0013,0.001,0.002,0.0025,0.0019,0.0052,0.0058,0.0056,0.0055,-0.0002,-0.0008,-0.0013,0,0,0,0,0,-0.0048,-0.0063,-0.0057,-0.006,-0.0071,-0.0093,-0.0094,-0.0081,-0.0058,-0.0068,-0.0044,-0.0013,0.0015,0.002,0.0026,0.0021,0.0058,0.0056,0.0055,0.0001,-0.0006,-0.0013,0,0,0,0,0,0,-0.005,-0.0062,-0.0055,-0.0071,-0.0083,-0.0087,-0.0095,-0.0084,-0.0074,-0.0063,-0.0028,-0.002,-0.002,0.0006,0.0012,0.0017,0.0043,0.0042,0.0001,-0.0006,-0.0012,0.0017,0.0053,0,0,0,0,0,-0.0054,-0.0068,-0.0078,-0.0092,-0.01,-0.0096,-0.0101,-0.0095,-0.0089,-0.0082,-0.0061,-0.0036,-0.0027,-0.001,-0.0003,0.0002,0.0082,0.0003,-0.0002,-0.0007,0.0019,0.0131,0.014,0.0048,0.0048,0.0048,0,0,-0.0059,-0.0067,-0.0075,-0.0094,-0.0099,-0.0123,-0.0096,-0.011,-0.012,-0.0076,-0.008,-0.0062,-0.0034,-0.0035,-0.003,-0.0008,0.0056,-0.0009,-0.0014,0.0016,0.0131,0.014,0.0149,0.0047,0.0047,0.0047,0,0,-0.0087,-0.0085,-0.011,-0.0124,-0.0139,-0.014,-0.0145,-0.0151,-0.0144,-0.0155,-0.0123,-0.0096,-0.0096,-0.006,-0.0045,-0.0072,0.0014,-0.0083,-0.0074,0.0033,0.0042,0.0052,0.0153,0.0172,-0.0074,-0.0074,-0.0074,0,-0.0091,-0.0124,-0.0122,-0.0152,-0.0164,-0.015,-0.0179,-0.018,-0.018,-0.0165,-0.0164,-0.0115,-0.0099,-0.0058,-0.0077,-0.008,-0.0007,-0.0054,0.0029,0.0041,0.0052,0.0153,0.0175,-0.0077,-0.0077,-0.0076,-0.0076,0,-0.0142,-0.0166,-0.0184,-0.0214,-0.0226,-0.0251,-0.0252,-0.0254,-0.0241,-0.0225,-0.0191,-0.0157,-0.0112,-0.0117,-0.011,-0.0035,-0.0006,0.0001,0.0053,0.0058,0.0163,0.0188,-0.0082,-0.008,-0.008,-0.0079,0,0,-0.0159,-0.021,-0.0217,-0.0238,-0.026,-0.0276,-0.0289,-0.0288,-0.0274,-0.0253,-0.0216,-0.0191,-0.014,-0.0118,-0.0086,0.0003,0.012,0.0029,0.0036,0.0141,0.0365,0.0296,0.0317,0.0144,0.0148,0.0151,0.0404,0,-0.02,-0.0265,-0.0277,-0.0328,-0.0358,-0.0347,-0.0359,-0.0346,-0.0321,-0.0285,-0.0207,-0.0173,-0.015,-0.0125,-0.003,0.0074,0.0183,0.0052,0.0335,0.0344,0.0293,0.0342,0.0164,0.0422,0.0428,0.0432,0.0435,0,-0.0247,-0.0284,-0.0345,-0.0378,-0.0388,-0.0411,-0.04,-0.0408,-0.0345,-0.032,-0.0237,-0.0181,-0.0058,-0.0047,0.0206,0.0121,0.0245,0.034,0.0352,0.0335,0.0321,0.0419,0.048,0.0476,0.0473,0.047,0.0467,0,-0.0262,-0.0326,-0.0373,-0.0391,-0.0428,-0.0439,-0.0446,-0.041,-0.0402,-0.0323,-0.0288,-0.0139,-0.0052,0.0127,0.0308,0.0268,0.0597,0.0569,0.0644,0.0641,0.0655,0.0642,0.078,0.0779,0.0779,0.0778,0.0777,0,-0.0299,-0.0338,-0.0386,-0.0416,-0.0454,-0.0461,-0.0472,-0.0458,-0.0414,-0.0368,-0.0292,-0.0194,-0.0001,0.019,0.0347,0.0577,0.0646,0.0676,0.0712,0.0618,0.0599,0.0672,0.0656,0.0788,0.0786,0.0784,0.0782,0,-0.0313,-0.035,-0.0407,-0.0454,-0.0469,-0.0491,-0.0509,-0.0503,-0.0461,-0.0392,-0.0365,-0.0201,0.0057,0.0258,0.0568,0.0625,0.0843,0.0913,0.0817,0.0838,0.0808,0.0785,0.102,0.102,0.102,0.102,0.1019,0,-0.0329,-0.0362,-0.0431,-0.0461,-0.0489,-0.052,-0.0536,-0.0527,-0.0509,-0.0367,-0.0321,-0.0087,0.0051,0.0472,0.064,0.0939,0.0953,0.1024,0.0895,0.0827,0.0838,0.0816,0.0794,0.1019,0.1019,0.1019,0.1019,0,-0.0353,-0.0378,-0.0421,-0.0479,-0.0515,-0.0553,-0.0567,-0.0558,-0.0503,-0.0461,-0.0223,-0.0033,0.0252,0.0513,0.0732,0.0936,0.0938,0.1023,0.1023,0.0903,0.0829,0.0835,0.0814,0.1019,0.1019,0.1019,0.1019,0,-0.036,-0.0388,-0.0438,-0.0483,-0.0534,-0.0562,-0.0575,-0.0506,-0.0473,-0.0318,-0.0211,0.0084,0.0263,0.0518,0.0737,0.0901,0.0908,0.0882,0.0889,0.0891,0.0729,0.0609,0.0795,0,0,0,0,0,-0.0361,-0.0386,-0.0435,-0.049,-0.0539,-0.0562,-0.058,-0.0579,-0.0514,-0.0337,-0.0275,0.001,0.0336,0.0489,0.0657,0.0669,0.088,0.085,0.0839,0.1018,0.1018,0.0837,0,0,0,0,0,0,-0.0363,-0.0406,-0.0428,-0.0479,-0.051,-0.0559,-0.0569,-0.0532,-0.0429,-0.0322,-0.0108,-0.001,0.0339,0.0289,0.0663,0.0706,0.0693,0.1018,0.1018,0.1017,0.1018,0.1018,0.0832,0,0,0,0,0]}]]